Flag for U.S.A. Weather past 2 weeks in Fort Bragg, California, U.S.A.

Now
44 °F

Clear.


Feels Like: 44 °F
Forecast: 50 / 64 °F
Wind: No wind

Location: Ukiah Municipal

Current Time: Mar 29, 2015 at 4:23:36 AM

Latest Report: Mar 29, 2015 at 3:56 AM


Visibility: 10 mi

Pressure: 30.13 "Hg

Humidity: 89%

Dew point: 41 °F

Location of Fort BraggLocation

Historic Weather in Fort Bragg — Graph

°F

Fort Bragg temperature yesterday

Maximum temperature yesterday: 78 °F (at 2:56 PM)
Minimum temperature yesterday: 45 °F (at 6:56 AM)
Average temperature yesterday: 60 °F

Past Weeks' High & Low Weather Summary

 TemperatureHumidityPressure
High86 °F (Mar 26, 4:56 PM)93% (Mar 22, 6:56 AM)30.31 "Hg (Mar 22, 6:56 AM)
Low40 °F (Mar 18, 6:56 AM)13% (Mar 19, 4:56 PM)29.93 "Hg (Mar 15, 4:56 AM)
Average59 °F64%30.11 "Hg
* Reported Mar 14 2:56 AM — Mar 29 2:56 AM, Fort Bragg, Weather by CustomWeather, © 2015

Note: Actual official high and low records may vary slightly from our data, if they occured in-between our weather recording intervals... More about our weather records

Advertising

Fort Bragg weather history for previous 24 hours

 ConditionsComfort  
Time TempWeatherWind HumidityBarometerVisibility
2:56 AM
Sun, Mar 29
48 °FClear.3 mph80%30.14 "Hg10 mi
1:56 AM47 °FClear.No wind83%30.14 "Hg10 mi
12:56 AM49 °FClear.3 mph77%30.15 "Hg10 mi
11:56 PM
Sat, Mar 28
51 °FClear.3 mph71%30.15 "Hg10 mi
10:56 PM52 °FClear.3 mph72%30.15 "Hg10 mi
9:56 PM56 °FClear.No wind58%30.15 "Hg10 mi
8:56 PM60 °FClear.5 mph47%30.15 "Hg10 mi
7:56 PM62 °FSunny.No wind48%30.13 "Hg10 mi
6:56 PM68 °FSunny.10 mph36%30.11 "Hg10 mi
5:56 PM70 °FSunny.9 mph35%30.10 "Hg10 mi
4:56 PM77 °FSunny.10 mph22%30.09 "Hg10 mi
3:56 PM78 °FSunny.9 mph17%30.10 "Hg10 mi
2:56 PM78 °FSunny.9 mph19%30.12 "Hg10 mi
1:56 PM74 °FSunny.3 mph32%30.15 "Hg10 mi
12:56 PM71 °FSunny.3 mph36%30.18 "Hg10 mi
11:56 AM66 °FSunny.No wind45%30.22 "Hg10 mi
10:56 AM62 °FSunny.No wind48%30.23 "Hg10 mi
9:56 AM57 °FSunny.No wind62%30.24 "Hg10 mi
8:56 AM51 °FSunny.No wind80%30.24 "Hg10 mi
7:56 AM48 °FClear.3 mph80%30.23 "Hg10 mi
6:56 AM45 °FClear.5 mph86%30.21 "Hg10 mi
5:56 AM47 °FClear.3 mph83%30.19 "Hg10 mi
4:56 AM49 °FClear.5 mph84%30.19 "Hg10 mi
Weather by CustomWeather, © 2015

See weather overviewHow to use our weather pages